Vertical_Velocity
-0 -2 -0 -1 -1 -1 2 -1 -3 1 -0 1 -1 -2 -3 -3 -6 -1 0 3 1 -6 7 -3 0 3 6 -0 1 3 2 -1 1 -1 -0 -1 -0 1 -0 0 -0 -6 -2 -4 5 0 -12 3 -1 0 -0 -0 -0 1
-3 0 -1 -2 0 2 3 4 -0 0 0 1 -0 0 0 -1 -3 -9 -1 -5 -3 -3 -0 1 -6 1 -4 8 0 1 -3 1 3 -2 -1 2 -0 0 -0 -2 2 -4 -9 2 -5 -2 2 1 -1 1 -1 -0 0 3
-1 -2 2 1 2 2 5 2 2 2 -0 -0 1 1 0 -1 -3 -1 -2 -3 -4 -6 -0 -0 -3 14 10 -3 13 5 0 0 1 3 -3 -1 -1 -0 -2 -4 2 -1 3 -5 3 4 2 1 2 1 1 -1 1 2
-0 0 1 2 3 2 3 3 3 1 -2 -1 1 2 -0 1 1 0 -6 0 2 1 -10 0 -3 4 0 11 0 12 5 0 1 2 -0 -1 -2 0 -2 -0 -1 4 1 -3 -6 -6 1 -0 -1 2 -1 -0 1 2
2 -1 -0 2 2 1 -0 0 1 1 -1 0 -0 0 1 3 2 0 1 3 4 -4 -6 -9 -1 -1 -2 4 7 3 3 -1 3 2 -1 -0 -1 -1 1 -2 -4 3 4 2 -5 8 3 6 -3 -3 -1 -1 1 2
3 1 -1 1 2 -1 -3 -0 0 -0 -1 -0 -0 1 3 1 1 -1 -1 -1 1 3 -3 -8 -3 -3 3 17 -0 8 10 -5 4 2 -0 -2 -1 -2 1 -4 -3 1 2 1 -8 3 -5 -5 -1 -0 -0 -3 1 2
1 0 1 0 -2 -2 1 2 0 2 -1 1 0 3 1 2 -3 0 -2 -1 0 1 -1 -4 9 9 13 6 4 -2 -4 8 2 -0 -3 0 -0 2 1 -9 3 0 4 2 -1 1 -2 2 -1 -1 -1 -1 2 2
-1 0 -0 1 -2 -1 -2 -0 1 1 -1 -0 2 0 -1 -3 -1 -2 -6 -8 -3 -4 1 -7 9 52 9 -1 2 -1 6 4 1 0 -3 -2 1 1 -9 -0 -0 -2 0 1 8 -1 -3 -1 -1 -3 -2 1 1 1
-1 -2 -2 -0 -0 0 -0 -2 1 1 0 -1 2 1 0 -5 5 -2 -0 -3 -3 -0 2 5 17 12 -0 -0 7 0 17 18 -1 -2 0 0 1 -3 -1 1 1 -0 -1 0 0 -2 -1 -3 -3 -2 -1 0 1 -0
3 -1 -2 -3 3 2 2 -1 -0 3 -0 1 1 1 0 -3 4 0 3 -0 -1 5 6 12 18 -1 5 4 -2 4 0 -2 6 2 -2 2 -4 -3 -0 -2 -1 -0 -1 1 -2 3 -4 1 1 -1 -1 -2 -0 -0
1 -0 3 -1 1 1 -0 -1 1 2 -1 1 1 1 1 -0 -0 -0 3 2 -0 3 6 8 3 4 9 1 -2 4 1 8 0 1 -4 0 -0 -3 2 0 1 1 -0 1 0 2 -1 -1 0 -1 -1 0 1 1
8 -2 2 -1 -3 1 -3 0 1 0 2 0 2 -4 -1 -1 1 -1 -1 0 3 2 1 7 5 3 4 3 1 -3 -0 -1 0 2 -2 -2 -6 -1 1 2 1 -0 -0 1 -2 -0 -1 1 1 1 -1 1 3 0
-2 -1 -1 2 0 1 -1 1 3 3 -2 1 1 -0 -0 -1 0 -6 -2 -1 0 -1 -2 -0 1 2 2 -1 -1 -1 -1 -1 -2 -1 -2 -3 -0 -0 0 2 -1 -1 -3 -1 -2 1 3 0 -0 0 0 -0 2 -0
-0 -4 -1 1 3 1 0 -2 4 -1 1 -3 3 3 -5 -1 0 0 -6 -1 0 -0 -0 -2 2 0 0 -0 1 1 0 -0 1 -1 -4 -2 -2 -2 1 1 -0 -1 -4 3 9 10 -1 2 -0 -2 1 0 -1 1
-0 1 0 2 -1 0 -1 0 2 1 -2 -2 1 4 -2 -3 1 1 2 -2 -3 1 2 -3 2 0 -1 -1 -0 1 0 -0 -2 -3 -3 -1 -1 0 1 0 0 -1 -3 -2 -6 4 -0 -3 -3 -6 4 7 6 5
-0 -1 -1 -1 0 1 1 1 2 -1 -1 -5 -4 1 2 -1 2 2 2 -1 -6 -0 3 3 1 -0 1 -1 1 -0 -1 -2 -1 -2 -1 -1 -1 -0 1 1 0 1 1 1 1 -0 -2 -2 -2 -6 -4 5 7 5
-2 -2 2 -1 1 0 0 1 2 1 -2 -3 -4 2 1 -3 -1 0 2 -0 -3 -0 4 6 5 0 0 0 -5 -1 -5 -0 -1 -0 -0 0 1 1 0 0 1 1 0 1 2 1 1 2 -1 -2 1 -5 -8 -2
-0 3 -1 -1 2 1 -1 0 3 -1 -2 -3 -3 -6 -1 1 2 0 2 2 -2 -3 2 6 -4 1 -1 -2 -6 1 2 -0 1 1 1 0 -1 -1 -2 -1 0 2 1 -0 -0 1 1 0 2 2 1 -1 -2 -2
2 -1 1 2 2 1 1 -6 1 -3 -4 -3 -2 2 -2 0 2 1 0 2 1 -1 0 1 -5 -3 -3 -2 -2 -2 3 4 1 0 -1 0 -1 -0 -0 -1 -1 -3 -3 -0 -1 -1 1 1 0 2 2 1 2 1
1 -3 3 3 1 0 1 -2 -0 -0 -2 -2 -1 -2 -4 2 1 1 1 1 2 -0 -0 -9 -11 0 0 2 2 -1 -3 -1 1 1 0 -1 -1 -2 -3 -2 -2 -2 -3 -2 -3 -2 -3 -2 -0 -1 -0 3 2 2
-2 4 3 5 3 3 2 -2 -2 -2 -1 -2 -1 -2 -3 3 2 3 2 1 1 -8 -4 -2 3 1 0 -3 -3 -1 -1 -1 -2 -1 -2 -1 -2 -2 -3 -4 -3 -2 -2 -3 -1 -3 -1 -2 -2 -1 -0 -0 -0 2
-0 8 2 6 4 7 -2 -2 -1 -4 -3 -3 1 -1 -0 -2 -2 1 2 1 -6 1 -2 5 3 -4 -3 -1 -1 -1 -2 -2 -0 0 -0 -0 -0 -1 -2 -2 -0 -1 -1 -1 -2 -0 -1 -1 0 -0 -0 -1 0 1
1 20 5 12 13 3 -9 0 -1 0 2 -6 -0 -1 -2 1 -4 -2 -2 -6 -4 5 1 2 1 -1 -1 -2 -1 0 -1 -2 -3 -3 -4 -3 -2 -2 -0 -2 -2 -2 -0 -2 -4 -2 0 -1 -1 2 1 3 1 -0
6 8 17 14 -1 -5 1 -3 -1 -2 -4 -1 -2 0 -1 -1 -0 -0 -13 -11 7 0 -1 0 -1 -1 1 -0 0 -1 0 0 1 1 -1 -2 -0 -0 -1 -1 -2 -3 -4 -1 -1 -1 -3 -1 0 1 1 2 3 3
10 9 10 1 -6 -2 0 -5 -2 -1 -2 -0 0 2 -1 2 0 -5 -9 -4 3 0 -0 1 0 -0 -0 1 -0 -1 -1 -1 -3 1 1 -0 -2 1 1 -1 -1 -2 -4 -2 -2 -2 -1 -2 -2 -1 -0 -0 2 4
20 9 -2 -3 -5 3 -3 -5 -1 -1 1 3 2 -1 2 0 -4 -7 -7 1 1 1 0 1 -0 -1 1 -0 0 -1 -1 -1 -3 -2 2 0 -1 -2 -1 -3 0 6 -3 -4 -3 -1 -1 -1 -1 -2 -0 1 0 1
8 -3 -7 -6 -3 -1 -4 -1 1 2 -1 -1 -2 3 2 -3 -4 -4 1 -1 1 0 -2 -0 1 -0 0 -1 -1 -1 -0 -1 -1 -3 -1 -2 -3 -2 -3 -2 -3 0 -2 -0 -0 -3 -2 -1 -1 -1 -0 1 1 0
-1 -10 -2 6 1 -1 -4 -0 1 -0 1 -2 0 -1 -3 -1 -0 -0 -2 1 -1 -2 -2 1 -0 -2 -2 0 -0 0 -2 -1 -2 -2 -2 -2 0 -1 -2 -2 -2 -2 -4 -2 0 1 -1 -1 -1 -1 -1 1 1 -1
-4 2 7 -3 3 -1 -6 -3 1 -5 -1 -2 -2 2 -6 0 0 -3 -1 1 1 2 -0 -1 -2 -2 -1 0 -2 -0 -0 -1 -4 -3 -2 -1 3 10 -2 -3 -5 -4 -2 -1 -1 1 1 1 0 0 -0 -1 -0 0
4 4 1 2 -3 -8 -4 2 -0 -1 0 -0 0 -3 -2 1 2 1 1 1 -0 -3 -3 -3 -2 1 0 -1 -1 -4 -3 -3 -3 -3 -2 -0 -1 0 1 -2 -2 -0 -1 0 3 2 1 1 1 -2 -1 1 4 4
0 -0 3 3 -4 -7 -0 4 -2 0 0 -0 0 -2 1 -3 4 1 -1 -2 -3 -2 -2 1 2 -2 -3 -2 -1 -0 0 -3 1 -1 -3 -3 -1 2 0 -2 -1 1 1 0 1 1 1 -1 -2 0 4 2 2 1
8 3 4 -2 -2 2 1 -1 -1 -3 -0 -1 -1 -1 -1 -3 -6 -4 5 -2 -0 1 1 -0 -2 -1 -0 -2 -2 -1 2 2 1 -0 -1 -1 -1 -5 -2 -1 -0 1 1 1 -0 0 -0 3 4 1 2 1 2 3
4 5 3 4 1 -4 -2 3 1 -3 -1 -2 -2 0 -1 -4 -6 -1 4 -0 -1 0 -2 -2 -1 -1 -1 -1 -1 -2 -2 -3 -4 -1 -0 -3 -3 -2 -1 -1 0 1 0 -0 -1 0 2 1 0 1 2 2 1 0
Height
3026 3025 3023 3020 3018 3016 3016 3016 3016 3016 3015 3015 3013 3012 3010 3006 3003 3001 2998 2994 2993 2991 2996 2996 2997 3001 3005 3007 3009 3011 3013 3013 3014 3016 3017 3018 3018 3019 3019 3020 3019 3021 3022 3022 3023 3025 3021 3017 3017 3018 3016 3013 3010 3008
3018 3017 3015 3014 3012 3011 3012 3013 3012 3011 3010 3009 3007 3006 3005 3002 2998 2995 2993 2989 2983 2979 2984 2984 2986 2991 2996 3001 3005 3007 3008 3009 3010 3012 3014 3014 3015 3015 3016 3017 3017 3019 3018 3018 3018 3015 3015 3015 3014 3013 3011 3009 3007 3004
3012 3011 3009 3007 3007 3007 3008 3008 3007 3004 3004 3003 3001 2999 2996 2992 2989 2985 2983 2979 2973 2968 2968 2969 2977 2988 2986 2992 2999 3002 3005 3006 3007 3009 3011 3012 3013 3013 3013 3013 3013 3013 3014 3012 3013 3011 3011 3011 3011 3010 3009 3006 3004 3002
3007 3005 3004 3003 3003 3003 3003 3002 3001 3000 2999 2997 2995 2992 2988 2982 2976 2970 2966 2966 2962 2959 2955 2961 2960 2965 2975 2981 2990 2997 3001 3003 3005 3007 3007 3009 3011 3010 3009 3009 3009 3011 3009 3008 3006 3006 3008 3007 3007 3006 3005 3003 3001 2999
3002 3001 3000 2999 2999 2999 2998 2996 2996 2995 2994 2992 2989 2984 2978 2972 2966 2960 2957 2956 2955 2955 2950 2948 2950 2957 2968 2977 2985 2991 2996 2998 3002 3003 3005 3006 3007 3007 3006 3004 3002 3004 3004 3002 3000 3003 3002 3003 3002 3002 3002 3000 2999 2997
2998 2997 2996 2995 2995 2994 2993 2991 2991 2991 2989 2986 2983 2977 2969 2963 2957 2953 2951 2951 2949 2949 2948 2945 2945 2950 2960 2972 2980 2987 2992 2995 2998 3000 3001 3002 3003 3005 3002 2999 2998 2998 2996 2995 2993 2994 2994 2997 2998 2998 2998 2998 2996 2994
2993 2992 2992 2991 2990 2989 2987 2987 2987 2986 2984 2981 2976 2970 2963 2957 2953 2951 2951 2951 2949 2949 2948 2947 2943 2949 2958 2969 2977 2984 2989 2992 2996 2997 2997 2998 2999 2999 2997 2994 2994 2992 2990 2989 2988 2988 2989 2992 2993 2994 2994 2994 2993 2992
2989 2988 2988 2987 2986 2984 2984 2983 2983 2982 2980 2977 2971 2965 2962 2957 2952 2951 2951 2951 2950 2949 2950 2947 2941 2952 2961 2968 2975 2981 2986 2989 2992 2993 2994 2994 2995 2994 2992 2990 2988 2987 2986 2984 2983 2983 2984 2986 2987 2988 2989 2989 2990 2989
2986 2985 2984 2983 2982 2981 2981 2980 2980 2979 2977 2974 2969 2967 2964 2959 2956 2954 2953 2955 2954 2956 2952 2949 2949 2955 2962 2968 2974 2979 2982 2985 2988 2988 2990 2992 2990 2989 2986 2985 2984 2983 2981 2981 2980 2980 2980 2980 2981 2982 2983 2984 2985 2984
2982 2982 2981 2980 2978 2977 2977 2977 2977 2976 2975 2972 2970 2968 2966 2963 2960 2958 2958 2959 2957 2956 2953 2953 2955 2958 2964 2967 2972 2978 2981 2983 2984 2986 2986 2986 2985 2984 2983 2981 2980 2979 2977 2975 2974 2974 2973 2974 2976 2976 2977 2977 2979 2979
2979 2978 2977 2977 2975 2974 2974 2974 2974 2974 2973 2971 2969 2968 2967 2965 2963 2961 2959 2960 2960 2960 2958 2958 2960 2962 2965 2969 2972 2975 2976 2978 2980 2983 2984 2982 2980 2980 2980 2979 2976 2973 2971 2970 2969 2969 2969 2971 2972 2971 2971 2972 2974 2975
2976 2975 2975 2974 2973 2972 2971 2970 2971 2971 2971 2970 2969 2967 2967 2965 2963 2962 2961 2961 2961 2962 2962 2962 2963 2965 2967 2970 2973 2975 2976 2978 2978 2979 2980 2977 2976 2977 2978 2975 2972 2969 2967 2966 2964 2964 2965 2967 2968 2968 2967 2968 2969 2971
2972 2972 2971 2971 2970 2969 2968 2967 2967 2968 2969 2967 2966 2966 2966 2964 2962 2962 2962 2961 2961 2961 2963 2965 2966 2967 2969 2971 2972 2973 2974 2975 2976 2976 2974 2972 2974 2975 2974 2972 2969 2967 2967 2962 2957 2958 2961 2963 2964 2963 2962 2962 2964 2965
2969 2968 2968 2967 2967 2966 2965 2964 2964 2965 2966 2965 2963 2963 2964 2960 2958 2957 2959 2960 2961 2961 2963 2965 2967 2968 2969 2970 2971 2971 2972 2972 2971 2970 2968 2969 2971 2972 2972 2971 2969 2966 2965 2961 2958 2956 2959 2960 2961 2959 2954 2954 2957 2959
2965 2964 2964 2965 2964 2963 2962 2961 2961 2962 2963 2963 2961 2958 2957 2957 2956 2956 2956 2958 2959 2960 2963 2964 2966 2968 2968 2970 2969 2969 2968 2966 2964 2963 2965 2967 2969 2969 2969 2969 2968 2967 2965 2962 2961 2958 2959 2959 2958 2955 2951 2951 2953 2955
2961 2961 2962 2961 2960 2960 2959 2958 2958 2958 2958 2959 2957 2954 2954 2955 2954 2954 2953 2955 2957 2958 2961 2963 2965 2966 2967 2966 2965 2964 2964 2960 2960 2961 2963 2965 2967 2967 2967 2967 2966 2965 2963 2962 2961 2959 2958 2957 2957 2955 2953 2953 2954 2956
2956 2957 2959 2958 2957 2956 2955 2955 2954 2953 2953 2952 2953 2952 2951 2951 2952 2952 2951 2953 2955 2958 2959 2961 2961 2961 2962 2961 2960 2959 2957 2959 2959 2960 2962 2963 2964 2965 2965 2965 2964 2963 2962 2961 2960 2959 2957 2956 2956 2955 2955 2956 2956 2957
2951 2954 2954 2954 2953 2952 2951 2950 2950 2948 2946 2946 2947 2947 2947 2948 2947 2948 2948 2950 2953 2954 2955 2957 2957 2957 2956 2955 2954 2955 2956 2957 2958 2959 2960 2961 2961 2961 2961 2961 2960 2960 2959 2958 2957 2957 2955 2954 2954 2953 2953 2953 2954 2955
2949 2950 2950 2950 2950 2949 2948 2946 2946 2943 2942 2941 2941 2942 2943 2943 2943 2944 2944 2945 2948 2950 2951 2952 2953 2950 2951 2952 2954 2954 2954 2955 2955 2955 2955 2955 2955 2955 2954 2954 2953 2953 2953 2953 2953 2952 2952 2951 2950 2949 2949 2949 2949 2950
2943 2944 2945 2945 2945 2945 2944 2942 2940 2939 2937 2937 2936 2937 2937 2939 2939 2939 2940 2941 2943 2944 2945 2944 2945 2947 2948 2949 2949 2950 2949 2950 2950 2949 2949 2948 2948 2947 2947 2946 2946 2945 2945 2944 2944 2945 2946 2946 2945 2945 2944 2944 2944 2944
2936 2937 2938 2940 2939 2940 2940 2937 2936 2935 2933 2932 2931 2931 2932 2933 2934 2934 2935 2935 2936 2935 2937 2939 2941 2942 2942 2942 2942 2941 2941 2941 2942 2941 2941 2940 2939 2938 2937 2936 2936 2935 2934 2934 2934 2934 2935 2936 2937 2938 2939 2938 2938 2938
2929 2932 2934 2934 2933 2933 2932 2931 2932 2931 2931 2928 2928 2928 2927 2928 2928 2929 2929 2928 2928 2931 2932 2934 2935 2935 2935 2935 2934 2934 2934 2933 2933 2932 2932 2931 2931 2929 2928 2926 2926 2925 2924 2923 2922 2923 2923 2923 2925 2928 2930 2931 2932 2932
2924 2927 2928 2928 2928 2927 2926 2925 2926 2925 2925 2922 2922 2923 2922 2923 2923 2924 2922 2921 2922 2925 2925 2925 2926 2927 2928 2928 2927 2927 2926 2926 2926 2925 2924 2923 2922 2921 2920 2918 2916 2916 2916 2914 2912 2912 2912 2912 2913 2915 2917 2920 2922 2924
2918 2921 2921 2921 2921 2919 2917 2918 2918 2919 2918 2918 2917 2917 2917 2917 2917 2916 2914 2915 2918 2917 2917 2918 2919 2920 2920 2920 2919 2918 2917 2917 2917 2916 2914 2912 2911 2911 2910 2910 2908 2906 2904 2905 2904 2903 2902 2902 2902 2904 2906 2908 2911 2913
2914 2912 2913 2909 2910 2911 2911 2911 2913 2913 2912 2913 2912 2912 2911 2911 2910 2909 2908 2910 2910 2911 2911 2911 2912 2913 2913 2912 2912 2911 2910 2910 2909 2908 2906 2903 2903 2903 2903 2901 2900 2898 2894 2892 2892 2892 2893 2892 2893 2894 2895 2897 2900 2903
2900 2899 2900 2899 2901 2904 2904 2906 2906 2906 2906 2907 2907 2907 2906 2906 2906 2904 2903 2904 2904 2904 2904 2906 2907 2908 2907 2906 2906 2905 2903 2902 2900 2900 2899 2896 2894 2893 2892 2891 2891 2891 2884 2880 2881 2881 2881 2881 2881 2883 2884 2886 2888 2893
2888 2887 2888 2889 2892 2895 2898 2900 2900 2900 2900 2901 2900 2901 2902 2902 2900 2899 2900 2899 2899 2900 2901 2902 2902 2902 2901 2900 2900 2898 2896 2894 2891 2891 2890 2889 2887 2884 2880 2878 2878 2878 2875 2872 2870 2869 2870 2870 2870 2871 2873 2875 2877 2882
2878 2879 2882 2886 2888 2891 2893 2894 2894 2894 2894 2895 2896 2895 2896 2896 2896 2897 2897 2897 2897 2897 2896 2895 2895 2894 2894 2893 2891 2889 2887 2885 2882 2881 2881 2880 2877 2874 2869 2866 2865 2864 2862 2861 2859 2857 2857 2858 2859 2860 2862 2864 2867 2871
2868 2870 2875 2878 2882 2885 2887 2888 2889 2889 2890 2889 2889 2890 2890 2892 2893 2893 2893 2892 2890 2890 2890 2889 2888 2887 2886 2884 2883 2880 2878 2875 2874 2872 2870 2868 2866 2864 2857 2853 2852 2849 2847 2845 2844 2844 2843 2844 2847 2849 2851 2854 2857 2861
2859 2866 2869 2872 2875 2879 2882 2883 2883 2883 2883 2885 2885 2885 2886 2887 2887 2886 2885 2884 2884 2883 2882 2882 2880 2879 2877 2876 2874 2871 2869 2866 2863 2860 2857 2856 2853 2849 2844 2839 2835 2833 2830 2829 2829 2829 2830 2832 2835 2837 2840 2845 2848 2852
2856 2860 2864 2867 2869 2873 2876 2877 2878 2878 2878 2879 2879 2879 2879 2878 2879 2879 2878 2877 2876 2875 2875 2873 2873 2872 2870 2867 2866 2864 2862 2857 2853 2849 2846 2843 2839 2834 2828 2822 2819 2817 2816 2816 2817 2819 2821 2823 2826 2829 2833 2836 2840 2844
2850 2854 2858 2861 2864 2868 2869 2871 2872 2872 2873 2873 2873 2873 2872 2871 2870 2871 2872 2869 2868 2868 2868 2867 2866 2865 2863 2861 2858 2855 2852 2849 2846 2841 2837 2831 2825 2819 2813 2809 2807 2807 2808 2809 2810 2813 2815 2817 2820 2822 2826 2829 2833 2838
2846 2850 2852 2855 2858 2861 2863 2866 2866 2865 2866 2866 2866 2866 2866 2866 2864 2864 2864 2863 2863 2863 2862 2861 2859 2858 2855 2853 2850 2847 2844 2840 2836 2830 2825 2818 2812 2807 2804 2802 2802 2802 2803 2804 2806 2808 2810 2812 2814 2817 2820 2824 2827 2832